Location: Perryvale
(54.4667°N, 113.3833°W)
Time: 14:46:50
(UTC+00:00)

A-11 Canister half - All Passes

Search period start: 21 May 2025 00:00
Search period end: 31 May 2025 00:00
Orbit: 1524 x 1684 km, 47.3° (Epoch: 20 May)

Date Brightness Start Highest point End Pass type
(mag) Time Alt. Az. Time Alt. Az. Time Alt. Az.
21 May - 00:44:15 10° S 00:50:23 20° SE 00:56:37 10° E daylight
21 May - 02:44:40 10° SW 02:53:23 43° SSE 03:02:22 10° E daylight
21 May - 04:48:04 10° WSW 04:57:22 58° S 05:06:58 10° ESE visible
21 May - 06:52:23 10° W 07:01:27 46° SSW 07:10:47 10° SE visible
21 May - 08:57:40 10° W 09:04:43 23° SW 09:11:54 10° S visible
22 May - 00:22:49 10° S 00:28:42 19° SE 00:34:39 10° E daylight
22 May - 02:22:59 10° SW 02:31:37 42° SSE 02:40:31 10° E daylight
22 May - 04:26:19 10° WSW 04:35:34 58° S 04:45:09 10° ESE visible
22 May - 06:30:36 10° W 06:39:40 47° SSW 06:49:01 10° SE visible
22 May - 08:35:47 10° W 08:42:59 24° SW 08:50:20 10° S visible
23 May - 00:01:25 10° SSE 00:06:59 18° SE 00:12:39 10° E daylight
23 May - 02:01:18 10° SW 02:09:51 41° SSE 02:18:41 10° E daylight
23 May - 04:04:33 10° WSW 04:13:46 57° S 04:23:20 10° ESE daylight
23 May - 06:08:48 10° W 06:17:53 48° SSW 06:27:15 10° SE visible
23 May - 08:13:54 10° W 08:21:15 25° SW 08:28:45 10° S visible
23 May - 23:40:03 10° SSE 23:45:18 17° SE 23:50:38 10° E daylight
24 May - 01:39:37 10° SW 01:48:06 40° SSE 01:56:50 10° E daylight
24 May - 03:42:47 10° WSW 03:51:59 57° S 04:01:29 10° E daylight
24 May - 05:47:00 10° W 05:56:06 49° SSW 06:05:28 10° SE visible
24 May - 07:52:02 10° W 07:59:31 26° SW 08:07:09 10° S visible
24 May - 23:18:42 10° SSE 23:23:37 16° SE 23:28:34 10° E daylight
25 May - 01:17:57 10° SW 01:26:21 39° SSE 01:35:00 10° E daylight
25 May - 03:21:02 10° WSW 03:30:11 57° S 03:39:40 10° E daylight
25 May - 05:25:14 10° W 05:34:19 50° SSW 05:43:42 10° SE visible
25 May - 07:30:10 10° W 07:37:47 27° SW 07:45:33 10° S visible
25 May - 22:57:25 10° SSE 23:01:56 15° SE 23:06:29 10° E daylight
26 May - 00:56:18 10° SSW 01:04:37 38° SSE 01:13:09 10° E daylight
26 May - 02:59:16 10° WSW 03:08:24 56° S 03:17:51 10° E daylight
26 May - 05:03:27 10° W 05:12:32 50° SSW 05:21:55 10° SE visible
26 May - 07:08:19 10° W 07:16:02 28° SW 07:23:55 10° SSE visible
26 May - 22:36:11 10° SSE 22:40:15 14° SE 22:44:21 10° E daylight
27 May - 00:34:38 10° SSW 00:42:52 37° SSE 00:51:18 10° E daylight
27 May - 02:37:31 10° WSW 02:46:37 56° S 02:56:02 10° E daylight
27 May - 04:41:39 10° W 04:50:45 51° SSW 05:00:08 10° SE visible
27 May - 06:46:29 10° W 06:54:18 29° SW 07:02:17 10° SSE visible
27 May - 22:15:02 10° SSE 22:18:34 13° SE 22:22:08 10° ESE daylight
28 May - 00:12:59 10° SSW 00:21:08 35° SSE 00:29:27 10° E daylight
28 May - 02:15:46 10° WSW 02:24:50 55° S 02:34:12 10° E daylight
28 May - 04:19:53 10° W 04:28:58 52° SSW 04:38:20 10° ESE daylight
28 May - 06:24:38 10° W 06:32:33 30° SW 06:40:39 10° SSE visible
28 May - 21:54:00 10° SE 21:56:54 12° SE 21:59:49 10° ESE daylight
28 May - 23:51:21 10° SSW 23:59:23 34° SE 00:07:36 10° E daylight
29 May - 01:54:01 10° WSW 02:03:03 55° S 02:12:23 10° E daylight
29 May - 03:58:06 10° W 04:07:11 53° SSW 04:16:34 10° ESE daylight
29 May - 06:02:49 10° W 06:10:48 31° SW 06:19:00 10° SSE visible
29 May - 21:33:12 10° SE 21:35:13 11° ESE 21:37:16 10° ESE daylight
29 May - 23:29:43 10° SSW 23:37:39 33° SE 23:45:45 10° E daylight
30 May - 01:32:17 10° WSW 01:41:17 54° SSE 01:50:33 10° E daylight
30 May - 03:36:20 10° W 03:45:24 53° SSW 03:54:46 10° ESE daylight
30 May - 05:40:59 10° W 05:49:03 32° SW 05:57:20 10° SSE visible
30 May - 07:50:19 10° WSW 07:51:33 10° WSW 07:52:47 10° SW visible
30 May - 23:08:06 10° SSW 23:15:55 32° SE 23:23:54 10° E daylight
